Погода в Айн-Сохне

Египет     29°37′43″N   32°19′11″E
темп.,
°C
ветер,
м/с
пор.,
м/с
влажн.,
%
обл.,
%
осадки,
мм/ч
давл.,
гПа
погр.,
м
7 мая, пт
пт723:00+26ссз34261 0.0 101435
02:00+24сз23330 0.0 101424
05:00+23з22350 0.0 101416
08:00+28зсз112487 0.0 1014262
11:00+33сз13167 0.0 10141166
14:00+37ссз69135 0.0 10122055
17:00+36с10111629 0.0 10111766
20:00+27ссз13320 0.0 101465
8 мая, сб
сб823:00+24сз22371 0.0 101519
02:00+22зсз113711 0.0 101311
05:00+21юз01330 0.0 101311
08:00+27вюв22240 0.0 1014224
11:00+32вюв33130 0.0 1012446
14:00+37юв2270 0.0 1010666
17:00+38юв2270 0.0 1009466
20:00+32с11100 0.0 101011
9 мая, вс
вс923:00+29в22122 0.0 101011
02:00+27с221688 0.0 101011
05:00+25св1118100 0.0 100911
08:00+34вюв119100 0.0 1010168
11:00+36юв431097 0.0 1010375
14:00+39юв559100 0.0 1007449
17:00+37ссв3412100 0.0 1008723
20:00+29ссв91428100 0.1 1011219
10 мая, пн
пн1023:00+30зсз222279 0.0 100911
02:00+29всв2222100 0.0 100711
05:00+25ссз33397 0.0 100827
08:00+27зсз44420 0.0 1009391
11:00+33сз442790 0.0 1009804
14:00+37сз4520100 0.0 10061603
17:00+37сз661897 0.0 10051913
20:00+26ссз611460 0.0 1008386
11 мая, вт
вт1123:00+23ссз46550 0.0 1010431
02:00+21зсз47680 0.0 1009315
05:00+18зсз46820 0.0 1009220
08:00+22сз45620 0.0 1010571
11:00+28ссз34360 0.0 10091187
14:00+31ссз45250 0.0 10071825
17:00+32с77230 0.0 10062068
20:00+24с59490 0.0 1009285